| time (UTC) | temp F | wind direction | speed MPH | gust MPH | rain 1hr in | rain 24hr in | rain mn in | humidity % | barometer mb |
| 20260506022743 | 57 | 271 | 0.0 | 4.0 | 0.00 | 0.24 | 0.14 | 79 | 1017.0 |
| 20260506022242 | 57 | 271 | 0.0 | 1.0 | 0.00 | 0.24 | 0.14 | 79 | 1016.9 |
| 20260506021740 | 57 | 271 | 0.0 | 1.0 | 0.00 | 0.24 | 0.14 | 78 | 1016.9 |
| 20260506021238 | 58 | 271 | 0.0 | 4.0 | 0.00 | 0.24 | 0.14 | 78 | 1016.9 |
| 20260506020738 | 58 | 271 | 0.0 | 4.0 | 0.00 | 0.24 | 0.14 | 78 | 1016.7 |
| 20260506020238 | 58 | 271 | 0.0 | 0.0 | 0.00 | 0.24 | 0.14 | 78 | 1016.6 |
| 20260506015737 | 58 | 271 | 0.0 | 0.0 | 0.00 | 0.24 | 0.14 | 77 | 1016.6 |
| 20260506015447 | 58 | 271 | 0.0 | 6.0 | 0.00 | 0.24 | 0.14 | 77 | 1016.4 |
| 20260506015021 | 58 | 271 | 0.0 | 6.0 | 0.00 | 0.24 | 0.14 | 77 | 1016.4 |
| 20260506014950 | 58 | 271 | 0.0 | 6.0 | 0.00 | 0.24 | 0.14 | 77 | 1016.4 |
| 20260506014448 | 58 | 271 | 0.0 | 0.0 | 0.00 | 0.24 | 0.14 | 77 | 1016.4 |
| 20260506013734 | 58 | 271 | 0.0 | 0.0 | 0.00 | 0.24 | 0.14 | 77 | 1016.4 |
| 20260506013235 | 58 | 271 | 0.0 | 0.0 | 0.00 | 0.24 | 0.14 | 77 | 1016.4 |
| 20260506012947 | 58 | 271 | 0.0 | 4.0 | 0.00 | 0.24 | 0.14 | 78 | 1016.3 |
| 20260506012232 | 58 | 271 | 0.0 | 4.0 | 0.00 | 0.24 | 0.14 | 78 | 1016.4 |
| 20260506011942 | 58 | 273 | 0.0 | 1.0 | 0.00 | 0.24 | 0.14 | 78 | 1016.4 |
| 20260506011446 | 58 | 273 | 0.0 | 6.0 | 0.00 | 0.24 | 0.14 | 78 | 1016.4 |
| 20260506010943 | 58 | 273 | 0.0 | 6.0 | 0.00 | 0.24 | 0.14 | 77 | 1016.6 |
| 20260506010230 | 59 | 277 | 0.0 | 6.0 | 0.00 | 0.24 | 0.14 | 77 | 1016.6 |
| 20260506005730 | 59 | 280 | 0.0 | 0.0 | 0.00 | 0.24 | 0.14 | 78 | 1016.4 |
| 20260506005230 | 59 | 281 | 0.0 | 1.0 | 0.00 | 0.24 | 0.14 | 79 | 1016.3 |
| 20260506004730 | 59 | 280 | 0.0 | 1.0 | 0.00 | 0.24 | 0.14 | 79 | 1016.4 |
| 20260506004224 | 59 | 279 | 0.0 | 8.0 | 0.00 | 0.24 | 0.14 | 79 | 1016.3 |
| 20260506003718 | 59 | 280 | 0.0 | 8.0 | 0.00 | 0.24 | 0.14 | 78 | 1016.4 |
| 20260506003212 | 59 | 259 | 0.0 | 4.0 | 0.00 | 0.24 | 0.14 | 79 | 1016.3 |
| 20260506002712 | 59 | 258 | 0.0 | 0.0 | 0.00 | 0.24 | 0.14 | 79 | 1016.4 |
| 20260506002212 | 59 | 257 | 0.0 | 0.0 | 0.00 | 0.24 | 0.14 | 78 | 1016.4 |
| 20260506001712 | 59 | 258 | 0.0 | 9.0 | 0.00 | 0.24 | 0.14 | 79 | 1016.2 |
| 20260506001210 | 59 | 258 | 0.0 | 9.0 | 0.00 | 0.24 | 0.14 | 78 | 1016.2 |
| 20260506000710 | 60 | 263 | 0.0 | 1.0 | 0.00 | 0.24 | 0.14 | 79 | 1016.2 |
| 20260506000211 | 60 | 263 | 0.0 | 6.0 | 0.00 | 0.24 | 0.14 | 79 | 1016.1 |
| 20260505235708 | 60 | 263 | 0.0 | 6.0 | 0.00 | 0.24 | 0.14 | 79 | 1016.2 |
| 20260505235205 | 60 | 263 | 0.0 | 2.0 | 0.00 | 0.24 | 0.14 | 79 | 1016.3 |
| 20260505234706 | 60 | 265 | 0.0 | 6.0 | 0.00 | 0.24 | 0.14 | 79 | 1016.2 |
| 20260505234418 | 60 | 265 | 0.0 | 6.0 | 0.00 | 0.24 | 0.14 | 78 | 1016.3 |
| 20260505233706 | 60 | 267 | 0.0 | 5.0 | 0.00 | 0.24 | 0.14 | 78 | 1016.2 |
| 20260505233205 | 60 | 267 | 0.0 | 5.0 | 0.00 | 0.24 | 0.14 | 78 | 1016.2 |
| 20260505232703 | 60 | 267 | 0.0 | 0.0 | 0.00 | 0.24 | 0.14 | 79 | 1016.1 |
| 20260505232204 | 60 | 267 | 0.0 | 0.0 | 0.00 | 0.24 | 0.14 | 79 | 1016.2 |
| 20260505231704 | 60 | 267 | 0.0 | 6.0 | 0.00 | 0.24 | 0.14 | 79 | 1016.2 |
| 20260505231416 | 61 | 267 | 0.0 | 6.0 | 0.00 | 0.24 | 0.14 | 79 | 1016.2 |
| 20260505230704 | 61 | 272 | 0.0 | 1.0 | 0.00 | 0.24 | 0.14 | 78 | 1016.2 |
| 20260505230204 | 61 | 272 | 0.0 | 1.0 | 0.00 | 0.24 | 0.14 | 78 | 1016.3 |
| 20260505225704 | 61 | 271 | 0.0 | 1.0 | 0.00 | 0.24 | 0.14 | 77 | 1016.1 |
| 20260505225204 | 61 | 270 | 0.0 | 5.0 | 0.00 | 0.24 | 0.14 | 77 | 1016.2 |
| 20260505224704 | 61 | 260 | 0.0 | 5.0 | 0.00 | 0.24 | 0.14 | 77 | 1016.1 |
| 20260505224204 | 61 | 259 | 0.0 | 0.0 | 0.00 | 0.24 | 0.14 | 78 | 1016.1 |
| 20260505223704 | 61 | 259 | 0.0 | 0.0 | 0.00 | 0.24 | 0.14 | 77 | 1016.1 |
| 20260505223204 | 61 | 259 | 0.0 | 0.0 | 0.00 | 0.24 | 0.14 | 77 | 1016.1 |
| 20260505222918 | 61 | 259 | 0.0 | 4.0 | 0.00 | 0.24 | 0.14 | 78 | 1016.1 |
| 20260505222204 | 61 | 63 | 0.0 | 4.0 | 0.00 | 0.24 | 0.14 | 76 | 1016.3 |
| 20260505221704 | 62 | 275 | 0.0 | 0.0 | 0.00 | 0.24 | 0.14 | 77 | 1016.2 |
| 20260505221159 | 61 | 276 | 0.0 | 0.0 | 0.00 | 0.24 | 0.14 | 77 | 1016.2 |
| 20260505220915 | 61 | 276 | 0.0 | 0.0 | 0.00 | 0.24 | 0.14 | 77 | 1016.2 |
| 20260505220159 | 61 | 276 | 0.0 | 8.0 | 0.00 | 0.24 | 0.14 | 77 | 1016.3 |
| 20260505215916 | 61 | 275 | 0.0 | 8.0 | 0.00 | 0.24 | 0.14 | 76 | 1016.3 |
| 20260505215158 | 62 | 289 | 0.0 | 0.0 | 0.00 | 0.24 | 0.14 | 76 | 1016.3 |
| 20260505214658 | 62 | 288 | 0.0 | 0.0 | 0.00 | 0.24 | 0.14 | 76 | 1016.4 |
| 20260505214157 | 62 | 288 | 0.0 | 0.0 | 0.00 | 0.24 | 0.14 | 75 | 1016.3 |
| 20260505213658 | 62 | 288 | 0.0 | 1.0 | 0.00 | 0.24 | 0.14 | 76 | 1016.3 |
| 20260505213158 | 62 | 296 | 0.0 | 5.0 | 0.00 | 0.24 | 0.14 | 75 | 1016.4 |
| 20260505212657 | 62 | 279 | 0.0 | 5.0 | 0.00 | 0.24 | 0.14 | 78 | 1016.4 |
| 20260505212157 | 61 | 267 | 0.0 | 5.0 | 0.00 | 0.24 | 0.14 | 79 | 1016.4 |
| 20260505211657 | 60 | 267 | 0.0 | 5.0 | 0.00 | 0.24 | 0.14 | 77 | 1016.6 |
| 20260505211156 | 61 | 266 | 0.0 | 0.0 | 0.00 | 0.24 | 0.14 | 77 | 1016.6 |
| 20260505210655 | 61 | 265 | 0.0 | 0.0 | 0.00 | 0.24 | 0.14 | 77 | 1016.4 |
| 20260505210156 | 61 | 266 | 0.0 | 6.0 | 0.00 | 0.24 | 0.14 | 77 | 1016.4 |
| 20260505205906 | 61 | 263 | 0.0 | 6.0 | 0.00 | 0.24 | 0.14 | 77 | 1016.6 |
| 20260505205639 | 62 | 262 | 0.0 | 2.0 | 0.00 | 0.24 | 0.14 | 76 | 1016.6 |
| 20260505205404 | 62 | 262 | 0.0 | 2.0 | 0.00 | 0.24 | 0.14 | 76 | 1016.6 |
| 20260505204654 | 62 | 265 | 0.0 | 2.0 | 0.00 | 0.24 | 0.14 | 76 | 1016.6 |
| 20260505204152 | 62 | 261 | 0.0 | 0.0 | 0.00 | 0.24 | 0.14 | 75 | 1016.6 |
| 20260505203651 | 62 | 254 | 0.0 | 0.0 | 0.00 | 0.24 | 0.14 | 76 | 1016.7 |
| 20260505203152 | 61 | 254 | 0.0 | 5.0 | 0.00 | 0.24 | 0.14 | 76 | 1016.6 |
| 20260505202904 | 61 | 249 | 0.0 | 5.0 | 0.00 | 0.24 | 0.14 | 77 | 1016.7 |
| 20260505202149 | 60 | 269 | 0.0 | 4.0 | 0.00 | 0.24 | 0.14 | 79 | 1016.7 |
| 20260505201649 | 60 | 270 | 0.0 | 4.0 | 0.00 | 0.24 | 0.14 | 80 | 1016.7 |
| 20260505201150 | 60 | 269 | 0.0 | 4.0 | 0.00 | 0.24 | 0.14 | 81 | 1016.9 |
| 20260505200649 | 59 | 270 | 0.0 | 4.0 | 0.00 | 0.24 | 0.14 | 82 | 1016.8 |
| 20260505200149 | 59 | 270 | 0.0 | 2.0 | 0.00 | 0.24 | 0.14 | 82 | 1016.9 |
| 20260505195652 | 59 | 271 | 0.0 | 8.0 | 0.00 | 0.24 | 0.14 | 82 | 1016.8 |
| 20260505195149 | 58 | 270 | 0.0 | 8.0 | 0.00 | 0.24 | 0.14 | 81 | 1016.8 |
| 20260505194649 | 58 | 272 | 0.0 | 4.0 | 0.00 | 0.24 | 0.14 | 82 | 1016.8 |
| 20260505194149 | 59 | 272 | 0.0 | 4.0 | 0.00 | 0.24 | 0.14 | 81 | 1016.8 |
| 20260505193650 | 59 | 274 | 0.0 | 4.0 | 0.00 | 0.24 | 0.14 | 80 | 1016.8 |
| 20260505193149 | 59 | 274 | 0.0 | 4.0 | 0.00 | 0.24 | 0.14 | 80 | 1016.8 |
| 20260505192649 | 59 | 272 | 0.0 | 1.0 | 0.00 | 0.24 | 0.14 | 80 | 1016.8 |
| 20260505192150 | 60 | 272 | 0.0 | 1.0 | 0.00 | 0.24 | 0.14 | 80 | 1016.9 |
| 20260505191648 | 60 | 273 | 0.0 | 5.0 | 0.00 | 0.24 | 0.14 | 79 | 1016.8 |
| 20260505191147 | 60 | 272 | 0.0 | 5.0 | 0.00 | 0.24 | 0.14 | 80 | 1016.8 |
| 20260505190648 | 60 | 267 | 0.0 | 0.0 | 0.00 | 0.24 | 0.14 | 79 | 1016.8 |
| 20260505190145 | 60 | 265 | 0.0 | 0.0 | 0.00 | 0.24 | 0.14 | 80 | 1016.8 |
| 20260505190133 | 60 | 265 | 0.0 | 0.0 | 0.00 | 0.24 | 0.14 | 81 | 1016.7 |
| 20260505185857 | 60 | 265 | 0.0 | 0.0 | 0.00 | 0.24 | 0.14 | 81 | 1016.7 |
| 20260505185145 | 59 | 265 | 0.0 | 6.0 | 0.00 | 0.24 | 0.14 | 81 | 1016.8 |
| 20260505184645 | 59 | 264 | 0.0 | 7.0 | 0.00 | 0.24 | 0.14 | 81 | 1016.6 |
| 20260505184145 | 58 | 261 | 0.0 | 7.0 | 0.00 | 0.24 | 0.14 | 82 | 1016.3 |
| 20260505183645 | 58 | 259 | 0.0 | 4.0 | 0.00 | 0.24 | 0.14 | 84 | 1016.7 |
| 20260505183145 | 58 | 259 | 0.0 | 4.0 | 0.00 | 0.24 | 0.14 | 83 | 1016.7 |
| 20260505182646 | 58 | 265 | 0.0 | 6.0 | 0.00 | 0.24 | 0.14 | 84 | 1016.7 |
| 20260505182145 | 57 | 264 | 0.0 | 6.0 | 0.00 | 0.24 | 0.14 | 85 | 1016.7 |
| 20260505181645 | 57 | 267 | 0.0 | 1.0 | 0.00 | 0.24 | 0.14 | 86 | 1016.6 |
| 20260505181145 | 57 | 267 | 0.0 | 6.0 | 0.00 | 0.24 | 0.14 | 86 | 1016.7 |
| 20260505180645 | 57 | 267 | 0.0 | 6.0 | 0.00 | 0.24 | 0.14 | 86 | 1016.7 |
| 20260505180400 | 57 | 267 | 0.0 | 0.0 | 0.00 | 0.24 | 0.14 | 87 | 1016.6 |
| 20260505175646 | 57 | 267 | 0.0 | 0.0 | 0.00 | 0.24 | 0.14 | 87 | 1016.4 |
| 20260505175145 | 57 | 267 | 0.0 | 0.0 | 0.00 | 0.24 | 0.14 | 87 | 1016.6 |
| 20260505174646 | 57 | 267 | 0.0 | 2.0 | 0.00 | 0.24 | 0.14 | 88 | 1016.2 |
| 20260505174144 | 57 | 267 | 0.0 | 7.0 | 0.00 | 0.24 | 0.14 | 88 | 1016.2 |
| 20260505173639 | 56 | 267 | 1.0 | 7.0 | 0.00 | 0.24 | 0.14 | 88 | 1016.2 |
| 20260505173139 | 56 | 250 | 0.0 | 6.0 | 0.00 | 0.24 | 0.14 | 90 | 1016.2 |
| 20260505172637 | 56 | 251 | 0.0 | 6.0 | 0.00 | 0.24 | 0.14 | 90 | 1016.1 |
| 20260505172135 | 56 | 252 | 0.0 | 4.0 | 0.00 | 0.24 | 0.14 | 91 | 1016.1 |
| 20260505171635 | 56 | 252 | 0.0 | 4.0 | 0.00 | 0.24 | 0.14 | 91 | 1016.1 |
| 20260505171135 | 56 | 252 | 0.0 | 0.0 | 0.00 | 0.24 | 0.14 | 92 | 1016.1 |
| 20260505170635 | 55 | 252 | 0.0 | 0.0 | 0.00 | 0.24 | 0.14 | 92 | 1016.2 |
| 20260505170350 | 55 | 252 | 0.0 | 0.0 | 0.00 | 0.24 | 0.14 | 92 | 1016.2 |
| 20260505165832 | 55 | 252 | 0.0 | 0.0 | 0.00 | 0.24 | 0.14 | 92 | 1016.2 |
| 20260505165346 | 55 | 252 | 0.0 | 0.0 | 0.00 | 0.24 | 0.14 | 92 | 1016.2 |
| 20260505164635 | 55 | 252 | 0.0 | 0.0 | 0.00 | 0.24 | 0.14 | 93 | 1016.2 |
| 20260505164134 | 55 | 252 | 0.0 | 0.0 | 0.00 | 0.24 | 0.14 | 93 | 1016.2 |